Torna al catalogo

COSMOS 733

AttivoMilitareLEO
NORAD 7822·PAYLOAD·🇷🇺 Russia

Lanciato May 28, 1975 da Plesetsk Cosmodrome

Loading…

Prossimi Passaggi (prossime 24 ore)

TLE

AggiornatoSource: Space-Track

Epoca: Sep 14, 2026, 15:42 UTC

1 07822U 75045B   26257.65485066 -.00000004  00000-0  86459-4 0  9993
2 07822  74.0217 341.2925 0052656  68.9606 105.6399 12.38842790320087

Traccia COSMOS 733 in tempo reale con AllMySat

Download on the App Store